RYR6RR EGSS-LEAM

Flight info

Callsign RYR6RR
Flight time 2h 26m
Altitude 37000
Route NUGBO M183 SILVA Q41 SAM N63 LELNA DCT NOVAN DCT NENEM P152 PPN N10 CJN L27 BLN N865 ESILA
Aircraft B738/M-SDE2E3FGHIRWXY/LB1

Departure

Time 2026-04-24 22:01
Airport London Stansted Airport (EGSS)

Arrival

Time 2026-04-25 00:27
Airport Almería Airport (LEAM)
Time Latitude Longitude Altitude Speed Heading
2026-04-24 21:30 51.89004 0.25748 352 ft 0 kts 43°
2026-04-24 21:50 51.88995 0.25734 351 ft 4 kts 43°
2026-04-24 21:50 51.88977 0.25706 351 ft 4 kts 72°
2026-04-24 21:50 51.88975 0.25675 361 ft 4 kts 78°
2026-04-24 21:51 51.88968 0.25653 351 ft 4 kts 347°
2026-04-24 21:51 51.88954 0.25669 351 ft 4 kts 313°
2026-04-24 21:51 51.88943 0.25686 351 ft 0 kts 313°
2026-04-24 21:54 51.88945 0.25684 351 ft 2 kts 313°
2026-04-24 21:54 51.88968 0.25643 357 ft 8 kts 313°
2026-04-24 21:54 51.89020 0.25552 354 ft 14 kts 313°
2026-04-24 21:54 51.89091 0.25430 358 ft 16 kts 313°
2026-04-24 21:55 51.89160 0.25302 358 ft 11 kts 294°
2026-04-24 21:55 51.89121 0.25194 353 ft 13 kts 223°
2026-04-24 21:55 51.89051 0.25090 351 ft 14 kts 223°
2026-04-24 21:55 51.88973 0.24972 354 ft 16 kts 223°
2026-04-24 21:56 51.88886 0.24842 358 ft 18 kts 223°
2026-04-24 21:56 51.88794 0.24704 354 ft 18 kts 223°
2026-04-24 21:56 51.88693 0.24552 350 ft 21 kts 223°
2026-04-24 21:56 51.88587 0.24395 345 ft 20 kts 223°
2026-04-24 21:57 51.88486 0.24242 346 ft 20 kts 223°
2026-04-24 21:57 51.88389 0.24095 343 ft 19 kts 223°
2026-04-24 21:57 51.88295 0.23954 354 ft 18 kts 223°
2026-04-24 21:57 51.88204 0.23818 343 ft 18 kts 223°
2026-04-24 21:58 51.88105 0.23671 337 ft 20 kts 222°
2026-04-24 21:58 51.88005 0.23521 340 ft 19 kts 222°
2026-04-24 21:58 51.87908 0.23375 338 ft 19 kts 223°
2026-04-24 21:58 51.87815 0.23234 340 ft 18 kts 223°
2026-04-24 21:59 51.87730 0.23095 339 ft 16 kts 247°
2026-04-24 21:59 51.87778 0.22950 339 ft 15 kts 302°
2026-04-24 21:59 51.87739 0.22824 334 ft 14 kts 223°
2026-04-24 21:59 51.87659 0.22704 335 ft 17 kts 223°
2026-04-24 22:00 51.87563 0.22558 328 ft 22 kts 223°
2026-04-24 22:00 51.87522 0.22424 326 ft 13 kts 301°
2026-04-24 22:00 51.87590 0.22309 323 ft 15 kts 321°
2026-04-24 22:00 51.87687 0.22275 324 ft 15 kts 21°
2026-04-24 22:01 51.87828 0.22473 331 ft 54 kts 43°
2026-04-24 22:01 51.88275 0.23142 335 ft 118 kts 43°
2026-04-24 22:01 51.89010 0.24243 383 ft 164 kts 44°
2026-04-24 22:01 51.89843 0.25480 1092 ft 162 kts 44°
2026-04-24 22:02 51.90689 0.26725 1761 ft 169 kts 44°
2026-04-24 22:02 51.91630 0.28138 2072 ft 200 kts 44°
2026-04-24 22:02 51.92790 0.29608 2287 ft 226 kts 26°
2026-04-24 22:02 51.94388 0.30074 2549 ft 250 kts 354°
2026-04-24 22:03 51.96020 0.28962 3157 ft 263 kts 320°
2026-04-24 22:03 51.96797 0.27395 3688 ft 267 kts 295°
2026-04-24 22:03 51.97274 0.24539 4521 ft 269 kts 280°
2026-04-24 22:03 51.97541 0.21551 4898 ft 266 kts 277°
2026-04-24 22:04 51.97786 0.18564 5369 ft 269 kts 277°
2026-04-24 22:04 51.98034 0.15531 6143 ft 272 kts 278°
2026-04-24 22:04 51.97955 0.12483 6934 ft 276 kts 251°
2026-04-24 22:04 51.97160 0.09649 7715 ft 277 kts 243°
2026-04-24 22:05 51.96261 0.06849 8429 ft 282 kts 243°
2026-04-24 22:05 51.95347 0.04007 9180 ft 286 kts 243°
2026-04-24 22:05 51.94436 0.01126 9951 ft 289 kts 244°
2026-04-24 22:05 51.93524 -0.01803 10598 ft 295 kts 244°
2026-04-24 22:06 51.92576 -0.04889 10792 ft 318 kts 244°
2026-04-24 22:06 51.91567 -0.08201 11100 ft 335 kts 244°
2026-04-24 22:06 51.90534 -0.11617 11743 ft 339 kts 244°
2026-04-24 22:06 51.89496 -0.15059 12514 ft 341 kts 244°
2026-04-24 22:07 51.88454 -0.18522 13286 ft 343 kts 244°
2026-04-24 22:07 51.87402 -0.22019 14029 ft 347 kts 244°
2026-04-24 22:07 51.86344 -0.25532 14792 ft 349 kts 244°
2026-04-24 22:07 51.84992 -0.28803 15413 ft 355 kts 223°
2026-04-24 22:08 51.82865 -0.30847 16050 ft 361 kts 197°
2026-04-24 22:08 51.80376 -0.31432 16781 ft 366 kts 180°
2026-04-24 22:08 51.77823 -0.31087 17463 ft 371 kts 175°
2026-04-24 22:08 51.75244 -0.30582 18097 ft 376 kts 175°
2026-04-24 22:09 51.72632 -0.30028 18712 ft 381 kts 175°
2026-04-24 22:09 51.69992 -0.29471 19280 ft 385 kts 175°
2026-04-24 22:09 51.67321 -0.28920 19853 ft 388 kts 175°
2026-04-24 22:09 51.64625 -0.28380 20399 ft 393 kts 176°
2026-04-24 22:10 51.61898 -0.27847 20951 ft 397 kts 176°
2026-04-24 22:10 51.59146 -0.27317 21492 ft 401 kts 176°
2026-04-24 22:10 51.56363 -0.26787 22023 ft 405 kts 177°
2026-04-24 22:10 51.53554 -0.26256 22564 ft 409 kts 177°
2026-04-24 22:11 51.50718 -0.25723 23088 ft 412 kts 177°
2026-04-24 22:11 51.47856 -0.25185 23621 ft 416 kts 177°
2026-04-24 22:11 51.44967 -0.24643 24076 ft 419 kts 177°
2026-04-24 22:11 51.42058 -0.24095 24522 ft 422 kts 177°
2026-04-24 22:12 51.39133 -0.23546 24985 ft 424 kts 177°
2026-04-24 22:12 51.36195 -0.22994 25444 ft 426 kts 177°
2026-04-24 22:12 51.33242 -0.22436 25877 ft 429 kts 176°
2026-04-24 22:12 51.30275 -0.21877 26348 ft 430 kts 177°
2026-04-24 22:13 51.27300 -0.21321 26764 ft 432 kts 177°
2026-04-24 22:13 51.24306 -0.20767 27169 ft 435 kts 177°
2026-04-24 22:13 51.21333 -0.20217 27572 ft 437 kts 177°
2026-04-24 22:13 51.18263 -0.19648 27985 ft 439 kts 177°
2026-04-24 22:14 51.15261 -0.19091 28371 ft 442 kts 177°
2026-04-24 22:14 51.12160 -0.18517 28756 ft 444 kts 177°
2026-04-24 22:14 51.09125 -0.17955 29122 ft 446 kts 176°
2026-04-24 22:14 51.06038 -0.17384 29468 ft 448 kts 176°
2026-04-24 22:15 51.02928 -0.16810 29805 ft 451 kts 176°
2026-04-24 22:15 50.99805 -0.16235 30157 ft 453 kts 176°
2026-04-24 22:15 50.96667 -0.15657 30475 ft 455 kts 176°
2026-04-24 22:15 50.93518 -0.15078 30772 ft 456 kts 177°
2026-04-24 22:16 50.90365 -0.14500 31135 ft 456 kts 177°
2026-04-24 22:16 50.87227 -0.13921 31573 ft 452 kts 177°
2026-04-24 22:16 50.84112 -0.13348 32048 ft 449 kts 177°
2026-04-24 22:16 50.81011 -0.12780 32475 ft 448 kts 177°
2026-04-24 22:17 50.77921 -0.12215 32844 ft 447 kts 177°
2026-04-24 22:17 50.74834 -0.11654 33229 ft 446 kts 177°
2026-04-24 22:17 50.71760 -0.11095 33635 ft 444 kts 177°
2026-04-24 22:17 50.68699 -0.10538 34031 ft 442 kts 177°
2026-04-24 22:18 50.65648 -0.09984 34377 ft 441 kts 177°
2026-04-24 22:18 50.62602 -0.09431 34672 ft 440 kts 176°
2026-04-24 22:18 50.59563 -0.08880 34984 ft 439 kts 176°
2026-04-24 22:18 50.56528 -0.08331 35258 ft 439 kts 176°
2026-04-24 22:19 50.53498 -0.07787 35510 ft 438 kts 176°
2026-04-24 22:19 50.50468 -0.07240 35775 ft 438 kts 176°
2026-04-24 22:19 50.47442 -0.06694 36068 ft 437 kts 176°
2026-04-24 22:19 50.44422 -0.06149 36340 ft 436 kts 176°
2026-04-24 22:20 50.41406 -0.05607 36582 ft 436 kts 176°
2026-04-24 22:20 50.38435 -0.05072 36888 ft 434 kts 176°
2026-04-24 22:20 50.35442 -0.04535 37182 ft 433 kts 176°
2026-04-24 22:21 50.29414 -0.03460 37234 ft 438 kts 176°
2026-04-24 22:21 50.23355 -0.02376 37220 ft 437 kts 176°
2026-04-24 22:22 50.17368 -0.01307 37221 ft 431 kts 176°
2026-04-24 22:22 50.11419 -0.00252 37219 ft 430 kts 176°
2026-04-24 22:23 50.05536 0.01542 37224 ft 432 kts 168°
2026-04-24 22:23 49.99722 0.03953 37223 ft 433 kts 168°
2026-04-24 22:24 49.93884 0.06335 37215 ft 435 kts 168°
2026-04-24 22:24 49.88015 0.08658 37214 ft 436 kts 168°
2026-04-24 22:25 49.82116 0.10962 37215 ft 438 kts 168°
2026-04-24 22:25 49.76225 0.13260 37215 ft 441 kts 168°
2026-04-24 22:26 49.70269 0.15579 37210 ft 442 kts 168°
2026-04-24 22:26 49.64311 0.17930 37209 ft 442 kts 168°
2026-04-24 22:27 49.58360 0.20339 37214 ft 442 kts 168°
2026-04-24 22:27 49.52419 0.22737 37203 ft 441 kts 168°
2026-04-24 22:28 49.46492 0.25116 37206 ft 439 kts 168°
2026-04-24 22:28 49.40586 0.27478 37210 ft 438 kts 168°
2026-04-24 22:29 49.31764 0.30997 37209 ft 436 kts 168°
2026-04-24 22:29 49.25916 0.33410 37205 ft 435 kts 167°
2026-04-24 22:30 49.20089 0.35886 37197 ft 434 kts 167°
2026-04-24 22:30 49.14275 0.38345 37196 ft 433 kts 167°
2026-04-24 22:31 49.08502 0.40769 37184 ft 433 kts 167°
2026-04-24 22:31 49.02677 0.43205 37196 ft 434 kts 167°
2026-04-24 22:32 48.96833 0.45645 37193 ft 436 kts 167°
2026-04-24 22:32 48.90969 0.48085 37199 ft 438 kts 167°
2026-04-24 22:33 48.85067 0.50538 37201 ft 441 kts 167°
2026-04-24 22:33 48.79136 0.52996 37195 ft 443 kts 167°
2026-04-24 22:34 48.73165 0.55371 37190 ft 445 kts 167°
2026-04-24 22:34 48.67159 0.57702 37188 ft 446 kts 167°
2026-04-24 22:35 48.61150 0.60045 37183 ft 446 kts 167°
2026-04-24 22:35 48.55143 0.62392 37179 ft 446 kts 167°
2026-04-24 22:36 48.49193 0.64732 37173 ft 444 kts 167°
2026-04-24 22:36 48.43235 0.67169 37166 ft 442 kts 167°
2026-04-24 22:37 48.37303 0.69590 37172 ft 441 kts 167°
2026-04-24 22:37 48.31388 0.71987 37169 ft 440 kts 167°
2026-04-24 22:38 48.25486 0.74371 37171 ft 439 kts 167°
2026-04-24 22:38 48.19589 0.76707 37159 ft 438 kts 167°
2026-04-24 22:39 48.13687 0.79019 37148 ft 438 kts 167°
2026-04-24 22:39 48.07794 0.81328 37159 ft 438 kts 167°
2026-04-24 22:40 48.01900 0.83636 37151 ft 438 kts 167°
2026-04-24 22:40 47.95975 0.85951 37136 ft 438 kts 167°
2026-04-24 22:41 47.90097 0.88243 37155 ft 439 kts 167°
2026-04-24 22:41 47.85172 0.90158 37150 ft 441 kts 167°
2026-04-24 22:42 47.78219 0.92854 37141 ft 443 kts 167°
2026-04-24 22:42 47.72238 0.95167 37141 ft 444 kts 167°
2026-04-24 22:43 47.66244 0.97479 37130 ft 446 kts 167°
2026-04-24 22:43 47.60276 0.99778 37130 ft 446 kts 167°
2026-04-24 22:44 47.54264 1.02088 37129 ft 446 kts 167°
2026-04-24 22:44 47.48256 1.04392 37137 ft 446 kts 167°
2026-04-24 22:45 47.42219 1.06413 37126 ft 443 kts 176°
2026-04-24 22:45 47.36094 1.06430 37126 ft 440 kts 184°
2026-04-24 22:46 47.29983 1.06178 37129 ft 439 kts 183°
2026-04-24 22:46 47.23884 1.05995 37119 ft 438 kts 183°
2026-04-24 22:47 47.17796 1.05852 37129 ft 437 kts 183°
2026-04-24 22:47 47.11706 1.05712 37129 ft 437 kts 183°
2026-04-24 22:48 47.05622 1.05571 37128 ft 437 kts 183°
2026-04-24 22:48 46.99578 1.05403 37120 ft 437 kts 184°
2026-04-24 22:49 46.93495 1.05134 37119 ft 437 kts 184°
2026-04-24 22:49 46.87422 1.04854 37121 ft 437 kts 184°
2026-04-24 22:50 46.81351 1.04590 37127 ft 436 kts 184°
2026-04-24 22:50 46.75283 1.04336 37114 ft 436 kts 184°
2026-04-24 22:51 46.69222 1.04078 37127 ft 435 kts 184°
2026-04-24 22:51 46.63165 1.03821 37129 ft 435 kts 184°
2026-04-24 22:52 46.57107 1.03565 37117 ft 436 kts 184°
2026-04-24 22:52 46.51046 1.03312 37127 ft 436 kts 183°
2026-04-24 22:53 46.44978 1.03207 37124 ft 436 kts 182°
2026-04-24 22:53 46.39894 1.03178 37128 ft 436 kts 182°
2026-04-24 22:54 46.33826 1.03131 37127 ft 436 kts 182°
2026-04-24 22:54 46.27757 1.03067 37122 ft 436 kts 182°
2026-04-24 22:55 46.21685 1.03000 37110 ft 436 kts 182°
2026-04-24 22:55 46.15624 1.02932 37109 ft 435 kts 182°
2026-04-24 22:56 46.09569 1.02865 37123 ft 435 kts 182°
2026-04-24 22:56 46.03521 1.02798 37131 ft 434 kts 182°
2026-04-24 22:57 45.97517 1.02732 37129 ft 434 kts 182°
2026-04-24 22:57 45.91485 1.02667 37132 ft 433 kts 182°
2026-04-24 22:58 45.85463 1.02600 37124 ft 433 kts 182°
2026-04-24 22:58 45.79452 1.02929 37125 ft 434 kts 172°
2026-04-24 22:59 45.73515 1.04500 37130 ft 434 kts 171°
2026-04-24 23:00 45.64630 1.06911 37116 ft 433 kts 172°
2026-04-24 23:00 45.58705 1.08445 37112 ft 432 kts 172°
2026-04-24 23:01 45.52791 1.09957 37120 ft 432 kts 172°
2026-04-24 23:01 45.46869 1.11463 37115 ft 432 kts 172°
2026-04-24 23:02 45.40946 1.12972 37115 ft 432 kts 172°
2026-04-24 23:02 45.35035 1.14477 37110 ft 431 kts 172°
2026-04-24 23:03 45.29126 1.15974 37106 ft 431 kts 172°
2026-04-24 23:03 45.23213 1.17473 37117 ft 431 kts 172°
2026-04-24 23:04 45.17303 1.18872 37106 ft 430 kts 177°
2026-04-24 23:04 45.11386 1.18314 37131 ft 426 kts 192°
2026-04-24 23:05 45.05594 1.16764 37114 ft 426 kts 192°
2026-04-24 23:05 44.99772 1.15203 37113 ft 426 kts 192°
2026-04-24 23:06 44.93933 1.13678 37117 ft 427 kts 192°
2026-04-24 23:06 44.88084 1.12180 37110 ft 428 kts 191°
2026-04-24 23:07 44.82223 1.10688 37117 ft 428 kts 191°
2026-04-24 23:07 44.76358 1.09197 37115 ft 428 kts 191°
2026-04-24 23:08 44.70495 1.07710 37110 ft 428 kts 191°
2026-04-24 23:08 44.64636 1.06224 37113 ft 428 kts 191°
2026-04-24 23:09 44.58782 1.04745 37121 ft 427 kts 191°
2026-04-24 23:09 44.52932 1.03272 37118 ft 427 kts 191°
2026-04-24 23:10 44.47090 1.01799 37121 ft 426 kts 191°
2026-04-24 23:10 44.41251 1.00333 37112 ft 426 kts 191°
2026-04-24 23:11 44.35452 0.98879 37126 ft 426 kts 191°
2026-04-24 23:11 44.29613 0.97419 37124 ft 427 kts 191°
2026-04-24 23:12 44.23774 0.95961 37120 ft 426 kts 191°
2026-04-24 23:12 44.17943 0.94506 37126 ft 425 kts 191°
2026-04-24 23:13 44.12110 0.93055 37125 ft 425 kts 191°
2026-04-24 23:13 44.06286 0.91609 37129 ft 425 kts 191°
2026-04-24 23:14 44.00453 0.90164 37124 ft 425 kts 191°
2026-04-24 23:14 43.94625 0.88725 37127 ft 425 kts 191°
2026-04-24 23:15 43.88801 0.87286 37132 ft 425 kts 191°
2026-04-24 23:15 43.82990 0.85767 37129 ft 425 kts 192°
2026-04-24 23:16 43.77184 0.84194 37133 ft 425 kts 192°
2026-04-24 23:16 43.71368 0.82627 37136 ft 426 kts 192°
2026-04-24 23:17 43.65545 0.81071 37135 ft 426 kts 192°
2026-04-24 23:17 43.59758 0.79531 37141 ft 426 kts 192°
2026-04-24 23:18 43.53926 0.77982 37137 ft 427 kts 192°
2026-04-24 23:18 43.48088 0.76435 37144 ft 427 kts 192°
2026-04-24 23:19 43.42246 0.74891 37149 ft 428 kts 192°
2026-04-24 23:19 43.36398 0.73349 37145 ft 428 kts 192°
2026-04-24 23:20 43.30557 0.71810 37150 ft 427 kts 192°
2026-04-24 23:20 43.24728 0.70276 37152 ft 426 kts 192°
2026-04-24 23:21 43.18903 0.68746 37148 ft 425 kts 192°
2026-04-24 23:21 43.13095 0.67224 37161 ft 425 kts 192°
2026-04-24 23:22 43.07295 0.65709 37158 ft 424 kts 192°
2026-04-24 23:22 43.01499 0.64195 37162 ft 424 kts 191°
2026-04-24 23:23 42.95743 0.62696 37167 ft 424 kts 191°
2026-04-24 23:23 42.89943 0.61189 37171 ft 424 kts 191°
2026-04-24 23:24 42.84137 0.59682 37161 ft 424 kts 191°
2026-04-24 23:24 42.78344 0.58183 37170 ft 423 kts 191°
2026-04-24 23:25 42.72550 0.56685 37166 ft 424 kts 191°
2026-04-24 23:25 42.66746 0.55188 37163 ft 424 kts 191°
2026-04-24 23:26 42.60936 0.53695 37157 ft 425 kts 191°
2026-04-24 23:26 42.55120 0.52201 37156 ft 426 kts 191°
2026-04-24 23:27 42.49301 0.50709 37154 ft 426 kts 191°
2026-04-24 23:27 42.43478 0.49219 37150 ft 426 kts 191°
2026-04-24 23:28 42.37657 0.47731 37145 ft 426 kts 191°
2026-04-24 23:28 42.31833 0.46247 37142 ft 426 kts 191°
2026-04-24 23:29 42.26010 0.44766 37134 ft 426 kts 191°
2026-04-24 23:29 42.20186 0.43285 37137 ft 426 kts 191°
2026-04-24 23:30 42.14364 0.41807 37137 ft 426 kts 191°
2026-04-24 23:30 42.08544 0.40333 37133 ft 426 kts 191°
2026-04-24 23:31 42.02719 0.38862 37139 ft 426 kts 191°
2026-04-24 23:31 41.96930 0.37400 37132 ft 426 kts 191°
2026-04-24 23:32 41.91102 0.35935 37136 ft 426 kts 191°
2026-04-24 23:32 41.85278 0.34472 37129 ft 426 kts 191°
2026-04-24 23:33 41.79456 0.33011 37131 ft 426 kts 191°
2026-04-24 23:33 41.73634 0.31554 37131 ft 425 kts 191°
2026-04-24 23:34 41.67826 0.30104 37132 ft 424 kts 190°
2026-04-24 23:34 41.62026 0.28659 37128 ft 424 kts 191°
2026-04-24 23:35 41.56234 0.27217 37124 ft 423 kts 191°
2026-04-24 23:35 41.50458 0.25781 37127 ft 422 kts 191°
2026-04-24 23:36 41.44687 0.24349 37121 ft 421 kts 191°
2026-04-24 23:36 41.38924 0.22922 37124 ft 421 kts 190°
2026-04-24 23:37 41.33193 0.21507 37134 ft 421 kts 191°
2026-04-24 23:37 41.24452 0.19350 37319 ft 430 kts 191°
2026-04-24 23:38 41.21514 0.18627 37642 ft 428 kts 190°
2026-04-24 23:38 41.18596 0.17910 37976 ft 426 kts 190°
2026-04-24 23:38 41.15686 0.17195 38286 ft 424 kts 190°
2026-04-24 23:38 41.12781 0.16468 38520 ft 424 kts 192°
2026-04-24 23:39 41.09928 0.15458 38694 ft 425 kts 196°
2026-04-24 23:39 41.07101 0.14293 38868 ft 426 kts 197°
2026-04-24 23:39 41.04280 0.13098 39046 ft 425 kts 197°
2026-04-24 23:39 41.01459 0.11912 39113 ft 427 kts 197°
2026-04-24 23:40 40.96722 0.09972 39126 ft 429 kts 197°
2026-04-24 23:40 40.90074 0.07298 39135 ft 426 kts 197°
2026-04-24 23:41 40.85377 0.05415 39140 ft 424 kts 197°
2026-04-24 23:41 40.78803 0.02783 39135 ft 421 kts 197°
2026-04-24 23:42 40.74142 0.00919 39136 ft 421 kts 197°
2026-04-24 23:42 40.68542 -0.01317 39159 ft 421 kts 197°
2026-04-24 23:43 40.62936 -0.03553 39152 ft 421 kts 197°
2026-04-24 23:43 40.57325 -0.05786 39143 ft 421 kts 197°
2026-04-24 23:44 40.51707 -0.08015 39148 ft 422 kts 197°
2026-04-24 23:44 40.46081 -0.10246 39145 ft 422 kts 197°
2026-04-24 23:45 40.40449 -0.12475 39139 ft 423 kts 197°
2026-04-24 23:45 40.34805 -0.14705 39132 ft 423 kts 197°
2026-04-24 23:46 40.29168 -0.16930 39132 ft 423 kts 197°
2026-04-24 23:46 40.23526 -0.19152 39138 ft 423 kts 197°
2026-04-24 23:47 40.17886 -0.21368 39134 ft 423 kts 197°
2026-04-24 23:47 40.12253 -0.23578 39141 ft 422 kts 196°
2026-04-24 23:48 40.06624 -0.25785 39142 ft 422 kts 197°
2026-04-24 23:48 40.01006 -0.27981 39140 ft 421 kts 196°
2026-04-24 23:49 39.95395 -0.30170 39140 ft 420 kts 196°
2026-04-24 23:49 39.89839 -0.32333 39144 ft 419 kts 196°
2026-04-24 23:50 39.84254 -0.34503 39151 ft 419 kts 196°
2026-04-24 23:50 39.78671 -0.36670 39152 ft 419 kts 196°
2026-04-24 23:51 39.73092 -0.38835 39156 ft 418 kts 196°
2026-04-24 23:51 39.67516 -0.40994 39161 ft 418 kts 196°
2026-04-24 23:52 39.61940 -0.43149 39157 ft 418 kts 196°
2026-04-24 23:52 39.56368 -0.45299 39154 ft 418 kts 196°
2026-04-24 23:53 39.50794 -0.47446 39134 ft 418 kts 196°
2026-04-24 23:53 39.45442 -0.50345 39141 ft 418 kts 207°
2026-04-24 23:54 39.40338 -0.53971 39134 ft 418 kts 207°
2026-04-24 23:54 39.35225 -0.57583 39144 ft 420 kts 207°
2026-04-24 23:55 39.30084 -0.61170 39148 ft 421 kts 207°
2026-04-24 23:55 39.24923 -0.64749 39156 ft 422 kts 207°
2026-04-24 23:56 39.19745 -0.68334 39154 ft 423 kts 207°
2026-04-24 23:56 39.14561 -0.71919 39150 ft 423 kts 207°
2026-04-24 23:57 39.09370 -0.75510 39146 ft 424 kts 207°
2026-04-24 23:57 39.04165 -0.79089 39158 ft 425 kts 206°
2026-04-24 23:58 38.98937 -0.82676 39159 ft 427 kts 206°
2026-04-24 23:58 38.93694 -0.86279 39156 ft 428 kts 206°
2026-04-24 23:59 38.88427 -0.89889 39162 ft 429 kts 207°
2026-04-24 23:59 38.83144 -0.93505 39151 ft 431 kts 207°
2026-04-25 00:00 38.77844 -0.97128 39158 ft 432 kts 207°
2026-04-25 00:00 38.72528 -1.00751 39069 ft 435 kts 207°
2026-04-25 00:01 38.69870 -1.02559 38549 ft 441 kts 207°
2026-04-25 00:01 38.67172 -1.04393 38020 ft 437 kts 207°
2026-04-25 00:01 38.64497 -1.06213 37482 ft 434 kts 207°
2026-04-25 00:01 38.61829 -1.08026 36783 ft 435 kts 207°
2026-04-25 00:02 38.59166 -1.09834 36198 ft 433 kts 207°
2026-04-25 00:02 38.56506 -1.11637 35570 ft 432 kts 207°
2026-04-25 00:02 38.53854 -1.13432 34958 ft 430 kts 206°
2026-04-25 00:02 38.51210 -1.15216 34357 ft 430 kts 206°
2026-04-25 00:03 38.48570 -1.17003 33669 ft 429 kts 206°
2026-04-25 00:03 38.45933 -1.18786 33009 ft 428 kts 206°
2026-04-25 00:03 38.43302 -1.20564 32351 ft 427 kts 206°
2026-04-25 00:03 38.40682 -1.22335 31850 ft 424 kts 206°
2026-04-25 00:04 38.38089 -1.24085 31351 ft 420 kts 206°
2026-04-25 00:04 38.35516 -1.25820 30891 ft 417 kts 206°
2026-04-25 00:04 38.32965 -1.27538 30433 ft 413 kts 206°
2026-04-25 00:04 38.30427 -1.29245 29938 ft 410 kts 206°
2026-04-25 00:05 38.27913 -1.30934 29433 ft 407 kts 206°
2026-04-25 00:05 38.25425 -1.32605 28972 ft 402 kts 206°
2026-04-25 00:05 38.22962 -1.34258 28498 ft 398 kts 206°
2026-04-25 00:05 38.20520 -1.35896 28028 ft 395 kts 206°
2026-04-25 00:06 38.18101 -1.37518 27575 ft 392 kts 205°
2026-04-25 00:06 38.15702 -1.39125 27133 ft 388 kts 205°
2026-04-25 00:06 38.13358 -1.40694 26686 ft 384 kts 205°
2026-04-25 00:06 38.11002 -1.42268 26241 ft 382 kts 205°
2026-04-25 00:07 38.08656 -1.43835 25788 ft 380 kts 205°
2026-04-25 00:07 38.06323 -1.45392 25347 ft 378 kts 205°
2026-04-25 00:07 38.04001 -1.46941 24910 ft 376 kts 205°
2026-04-25 00:07 38.01693 -1.48479 24476 ft 374 kts 205°
2026-04-25 00:08 37.99395 -1.50010 24042 ft 372 kts 205°
2026-04-25 00:08 37.97105 -1.51535 23550 ft 372 kts 205°
2026-04-25 00:08 37.94818 -1.53057 23092 ft 370 kts 205°
2026-04-25 00:08 37.92548 -1.54567 22618 ft 367 kts 205°
2026-04-25 00:09 37.90292 -1.56064 22201 ft 364 kts 205°
2026-04-25 00:09 37.88070 -1.57521 21929 ft 357 kts 204°
2026-04-25 00:09 37.85865 -1.58955 21541 ft 356 kts 204°
2026-04-25 00:09 37.83662 -1.60386 21093 ft 356 kts 205°
2026-04-25 00:10 37.81449 -1.61822 20689 ft 360 kts 205°
2026-04-25 00:10 37.79195 -1.63282 20256 ft 367 kts 205°
2026-04-25 00:10 37.76920 -1.64757 19811 ft 366 kts 205°
2026-04-25 00:10 37.74660 -1.66223 19378 ft 364 kts 205°
2026-04-25 00:11 37.72418 -1.67677 18948 ft 361 kts 205°
2026-04-25 00:11 37.70940 -1.68635 18668 ft 360 kts 205°
2026-04-25 00:11 37.67970 -1.70560 18050 ft 357 kts 206°
2026-04-25 00:11 37.65769 -1.71985 17590 ft 355 kts 205°
2026-04-25 00:12 37.63580 -1.73402 17149 ft 353 kts 205°
2026-04-25 00:12 37.61404 -1.74808 16720 ft 350 kts 205°
2026-04-25 00:12 37.59249 -1.76201 16294 ft 347 kts 205°
2026-04-25 00:12 37.57111 -1.77583 15869 ft 344 kts 205°
2026-04-25 00:13 37.54988 -1.78953 15468 ft 341 kts 205°
2026-04-25 00:13 37.52882 -1.80310 15060 ft 339 kts 205°
2026-04-25 00:13 37.50793 -1.81656 14650 ft 337 kts 205°
2026-04-25 00:13 37.48712 -1.82996 14244 ft 335 kts 206°
2026-04-25 00:14 37.46668 -1.84310 13849 ft 334 kts 206°
2026-04-25 00:14 37.44573 -1.85657 13392 ft 332 kts 206°
2026-04-25 00:14 37.42548 -1.86959 12971 ft 330 kts 206°
2026-04-25 00:14 37.40511 -1.88269 12552 ft 328 kts 206°
2026-04-25 00:15 37.38487 -1.89568 12143 ft 325 kts 206°
2026-04-25 00:15 37.36480 -1.90857 11747 ft 323 kts 206°
2026-04-25 00:15 37.34482 -1.92139 11353 ft 322 kts 206°
2026-04-25 00:15 37.32495 -1.93412 10946 ft 320 kts 206°
2026-04-25 00:16 37.30523 -1.94675 10688 ft 314 kts 206°
2026-04-25 00:16 37.28606 -1.95903 10558 ft 305 kts 206°
2026-04-25 00:16 37.26742 -1.97096 10416 ft 297 kts 206°
2026-04-25 00:16 37.24928 -1.98257 10287 ft 289 kts 206°
2026-04-25 00:17 37.23168 -1.99405 10085 ft 284 kts 207°
2026-04-25 00:17 37.21426 -2.00572 9771 ft 283 kts 207°
2026-04-25 00:17 37.19698 -2.01732 9470 ft 281 kts 207°
2026-04-25 00:17 37.17981 -2.02884 9169 ft 279 kts 207°
2026-04-25 00:18 37.16276 -2.04027 8879 ft 277 kts 207°
2026-04-25 00:18 37.14574 -2.05165 8584 ft 277 kts 207°
2026-04-25 00:18 37.12874 -2.06302 8299 ft 276 kts 207°
2026-04-25 00:18 37.11183 -2.07431 8014 ft 275 kts 207°
2026-04-25 00:19 37.09496 -2.08554 7721 ft 274 kts 207°
2026-04-25 00:19 37.07816 -2.09671 7438 ft 273 kts 207°
2026-04-25 00:19 37.06139 -2.10789 7156 ft 273 kts 207°
2026-04-25 00:19 37.04463 -2.11909 6876 ft 272 kts 207°
2026-04-25 00:20 37.02742 -2.12817 6659 ft 266 kts 188°
2026-04-25 00:20 37.00947 -2.12561 6446 ft 260 kts 155°
2026-04-25 00:20 36.99477 -2.11283 6142 ft 259 kts 131°
2026-04-25 00:20 36.98328 -2.09550 5796 ft 261 kts 128°
2026-04-25 00:21 36.97098 -2.07884 5493 ft 261 kts 134°
2026-04-25 00:21 36.95742 -2.06379 5160 ft 260 kts 143°
2026-04-25 00:21 36.94078 -2.05563 4783 ft 258 kts 171°
2026-04-25 00:21 36.92352 -2.05719 4586 ft 249 kts 204°
2026-04-25 00:22 36.91149 -2.07075 4579 ft 227 kts 246°
2026-04-25 00:22 36.90807 -2.08949 4331 ft 220 kts 264°
2026-04-25 00:22 36.90561 -2.10825 4031 ft 217 kts 259°
2026-04-25 00:22 36.90228 -2.12644 3748 ft 211 kts 257°
2026-04-25 00:23 36.89861 -2.14374 3460 ft 201 kts 255°
2026-04-25 00:23 36.89490 -2.16012 3198 ft 192 kts 257°
2026-04-25 00:23 36.89151 -2.17582 2965 ft 183 kts 256°
2026-04-25 00:23 36.88797 -2.19096 2770 ft 182 kts 256°
2026-04-25 00:24 36.88424 -2.20622 2505 ft 184 kts 255°
2026-04-25 00:24 36.88052 -2.22130 2255 ft 181 kts 255°
2026-04-25 00:24 36.87687 -2.23605 2017 ft 173 kts 256°
2026-04-25 00:24 36.87350 -2.24973 1820 ft 158 kts 257°
2026-04-25 00:25 36.87037 -2.26249 1580 ft 149 kts 256°
2026-04-25 00:25 36.86725 -2.27485 1374 ft 149 kts 255°
2026-04-25 00:25 36.86413 -2.28737 1155 ft 152 kts 256°
2026-04-25 00:25 36.86121 -2.29978 955 ft 145 kts 254°
2026-04-25 00:26 36.85835 -2.31145 793 ft 136 kts 254°
2026-04-25 00:26 36.85558 -2.32274 629 ft 136 kts 254°
2026-04-25 00:26 36.85281 -2.33398 426 ft 136 kts 252°
2026-04-25 00:26 36.85003 -2.34539 230 ft 139 kts 253°
2026-04-25 00:27 36.84722 -2.35676 67 ft 136 kts 253°
2026-04-25 00:27 36.84484 -2.36653 59 ft 92 kts 253°
2026-04-25 00:27 36.84346 -2.37211 57 ft 56 kts 253°
2026-04-25 00:27 36.84241 -2.37641 63 ft 44 kts 253°
2026-04-25 00:28 36.84194 -2.37904 60 ft 26 kts 267°
2026-04-25 00:28 36.84216 -2.38113 60 ft 20 kts 280°
2026-04-25 00:28 36.84265 -2.38197 64 ft 11 kts 17°
2026-04-25 00:28 36.84296 -2.38123 57 ft 10 kts 73°
2026-04-25 00:29 36.84317 -2.38036 63 ft 12 kts 73°
2026-04-25 00:29 36.84346 -2.37918 60 ft 17 kts 73°
2026-04-25 00:29 36.84386 -2.37755 65 ft 22 kts 73°
2026-04-25 00:29 36.84435 -2.37555 61 ft 23 kts 73°
2026-04-25 00:30 36.84469 -2.37418 65 ft 12 kts 73°
2026-04-25 00:30 36.84523 -2.37380 58 ft 9 kts 358°
2026-04-25 00:30 36.84564 -2.37335 61 ft 8 kts 73°
2026-04-25 00:30 36.84582 -2.37264 61 ft 9 kts 73°
2026-04-25 00:31 36.84600 -2.37190 61 ft 9 kts 73°
2026-04-25 00:31 36.84612 -2.37140 60 ft 9 kts 73°
2026-04-25 00:31 36.84654 -2.37093 67 ft 8 kts 354°
2026-04-25 00:31 36.84690 -2.37104 69 ft 4 kts 343°
2026-04-25 00:32 36.84705 -2.37088 63 ft 3 kts 99°
2026-04-25 00:32 36.84697 -2.37075 61 ft 0 kts 136°
2026-04-25 00:32 36.84694 -2.37073 69 ft 0 kts 143°